When you browse on this site, cookies collect data to enhance your experience and personalize the content and advertising you see.
Visit our Privacy Policy to learn more. By continuing to use the site, you agree to this use of cookies and data.
  • In United Kingdom
  • List of Countries
  • For 7 days
  • Water Temperature
  • Weather Map
  • Weather Widgets
  • user-avatar
    Login

    Hourly Weather Thimphu

    Today, 28 May, Thursday

    Time Temperature Precipitation Wind Pressure Humidity
    00:00 +7°C° 0 mm 1 mps 522 mmHg 90%
    01:00 +7°C° 0 mm 1 mps 522 mmHg 89%
    02:00 +7°C° 0 mm 1 mps 521 mmHg 88%
    03:00 +7°C° 0 mm 1 mps 521 mmHg 87%
    04:00 +7°C° 0 mm 1 mps 521 mmHg 86%
    05:00 +7°C° 0 mm 1 mps 522 mmHg 85%
    06:00 +7°C° 0 mm 1 mps 522 mmHg 84%
    07:00 +10°C° 0 mm 1 mps 523 mmHg 78%
    08:00 +12°C° 0 mm 1 mps 525 mmHg 72%
    09:00 +14°C° 0 mm 2 mps 527 mmHg 66%
    10:00 +14°C° 0.4 mm 2 mps 527 mmHg 68%
    11:00 +15°C° 0.4 mm 2 mps 527 mmHg 69%
    12:00 +15°C° 0.4 mm 2 mps 527 mmHg 70%
    13:00 +15°C° 0.9 mm 2 mps 526 mmHg 72%
    14:00 +15°C° 0.9 mm 2 mps 525 mmHg 73%
    15:00 +14°C° 0.9 mm 2 mps 525 mmHg 75%
    16:00 +14°C° 0.6 mm 1 mps 524 mmHg 79%
    17:00 +13°C° 0.6 mm 1 mps 524 mmHg 83%
    18:00 +12°C° 0.6 mm 1 mps 523 mmHg 87%
    19:00 +11°C° 0.2 mm 1 mps 523 mmHg 88%
    20:00 +10°C° 0.2 mm 1 mps 523 mmHg 89%
    21:00 +8°C° 0.2 mm 1 mps 522 mmHg 90%
    22:00 +8°C° 0.2 mm 1 mps 522 mmHg 91%
    23:00 +7°C° 0.2 mm 1 mps 522 mmHg 91%

    Tomorrow, 29 May, Friday

    Time Temperature Precipitation Wind Pressure Humidity
    00:00 +7°C° 0.2 mm 1 mps 522 mmHg 91%
    01:00 +7°C° 0.1 mm 1 mps 522 mmHg 90%
    02:00 +7°C° 0.1 mm 1 mps 522 mmHg 90%
    03:00 +7°C° 0.1 mm 1 mps 522 mmHg 89%
    04:00 +7°C° 0 mm 1 mps 522 mmHg 88%
    05:00 +8°C° 0 mm 1 mps 523 mmHg 88%
    06:00 +7°C° 0 mm 0 mps 523 mmHg 87%
    07:00 +10°C° 0.2 mm 1 mps 524 mmHg 84%
    08:00 +11°C° 0.2 mm 1 mps 525 mmHg 80%
    09:00 +13°C° 0.2 mm 1 mps 527 mmHg 77%
    10:00 +13°C° 0.7 mm 1 mps 526 mmHg 77%
    11:00 +14°C° 0.7 mm 1 mps 526 mmHg 77%
    12:00 +14°C° 0.7 mm 2 mps 526 mmHg 78%
    13:00 +13°C° 1.1 mm 1 mps 525 mmHg 82%
    14:00 +12°C° 1.1 mm 1 mps 525 mmHg 85%
    15:00 +12°C° 1.1 mm 1 mps 524 mmHg 89%
    16:00 +11°C° 1.3 mm 1 mps 523 mmHg 91%
    17:00 +10°C° 1.3 mm 1 mps 523 mmHg 94%
    18:00 +10°C° 1.3 mm 1 mps 522 mmHg 96%
    19:00 +9°C° 0.1 mm 1 mps 523 mmHg 95%
    20:00 +9°C° 0.1 mm 1 mps 523 mmHg 94%
    21:00 +8°C° 0.1 mm 0 mps 524 mmHg 94%
    22:00 +8°C° 0.6 mm 0 mps 524 mmHg 95%
    23:00 +7°C° 0.6 mm 0 mps 524 mmHg 95%

    Day after tomorrow, 30 May, Saturday

    Time Temperature Precipitation Wind Pressure Humidity
    00:00 +7°C° 0.6 mm 0 mps 524 mmHg 96%
    01:00 +7°C° 0.5 mm 0 mps 524 mmHg 96%
    02:00 +7°C° 0.5 mm 0 mps 524 mmHg 96%
    03:00 +7°C° 0.5 mm 0 mps 523 mmHg 96%
    04:00 +7°C° 0.1 mm 0 mps 524 mmHg 95%
    05:00 +7°C° 0.1 mm 0 mps 524 mmHg 94%
    06:00 +7°C° 0.1 mm 0 mps 524 mmHg 94%
    07:00 +8°C° 0.2 mm 0 mps 525 mmHg 92%
    08:00 +9°C° 0.2 mm 0 mps 525 mmHg 90%
    09:00 +11°C° 0.2 mm 1 mps 526 mmHg 88%
    10:00 +12°C° 0.3 mm 1 mps 526 mmHg 85%
    11:00 +12°C° 0.3 mm 1 mps 526 mmHg 82%
    12:00 +13°C° 0.3 mm 2 mps 527 mmHg 78%
    13:00 +13°C° 0.4 mm 2 mps 526 mmHg 79%
    14:00 +13°C° 0.4 mm 2 mps 525 mmHg 80%
    15:00 +13°C° 0.4 mm 1 mps 525 mmHg 81%
    16:00 +12°C° 0.3 mm 1 mps 524 mmHg 83%
    17:00 +12°C° 0.3 mm 1 mps 524 mmHg 86%
    18:00 +11°C° 0.3 mm 1 mps 524 mmHg 88%
    19:00 +11°C° 0.1 mm 1 mps 524 mmHg 91%
    20:00 +9°C° 0.1 mm 0 mps 524 mmHg 93%
    21:00 +8°C° 0.1 mm 0 mps 524 mmHg 96%
    22:00 +8°C° 0 mm 0 mps 524 mmHg 96%
    23:00 +7°C° 0 mm 0 mps 524 mmHg 96%

    31 May, Sunday

    Time Temperature Precipitation Wind Pressure Humidity
    00:00 +7°C° 0 mm 0 mps 524 mmHg 96%
    01:00 +7°C° 0 mm 0 mps 524 mmHg 95%
    02:00 +7°C° 0 mm 0 mps 524 mmHg 94%
    03:00 +8°C° 0 mm 1 mps 524 mmHg 93%
    04:00 +9°C° 0 mm 1 mps 524 mmHg 91%
    05:00 +9°C° 0 mm 1 mps 524 mmHg 90%
    06:00 +9°C° 0 mm 1 mps 524 mmHg 89%
    07:00 +11°C° 0.1 mm 1 mps 526 mmHg 83%
    08:00 +13°C° 0.1 mm 1 mps 527 mmHg 77%
    09:00 +15°C° 0.1 mm 1 mps 529 mmHg 71%
    10:00 +15°C° 0.5 mm 2 mps 529 mmHg 71%
    11:00 +16°C° 0.5 mm 2 mps 529 mmHg 71%
    12:00 +16°C° 0.5 mm 2 mps 528 mmHg 71%
    13:00 +16°C° 1.1 mm 2 mps 528 mmHg 75%
    14:00 +15°C° 1.1 mm 2 mps 527 mmHg 78%
    15:00 +15°C° 1.1 mm 2 mps 526 mmHg 82%
    16:00 +14°C° 0.9 mm 1 mps 526 mmHg 86%
    17:00 +13°C° 0.9 mm 1 mps 525 mmHg 89%
    18:00 +12°C° 0.9 mm 1 mps 524 mmHg 93%
    19:00 +10°C° 0.2 mm 0 mps 525 mmHg 94%
    20:00 +10°C° 0.2 mm 0 mps 525 mmHg 95%
    21:00 +9°C° 0.2 mm 0 mps 525 mmHg 97%
    22:00 +9°C° 0.2 mm 0 mps 525 mmHg 96%
    23:00 +9°C° 0.2 mm 0 mps 525 mmHg 96%

    1 June, Monday

    Time Temperature Precipitation Wind Pressure Humidity
    00:00 +9°C° 0.2 mm 0 mps 524 mmHg 96%
    01:00 +8°C° 0.1 mm 0 mps 524 mmHg 95%
    02:00 +8°C° 0.1 mm 0 mps 524 mmHg 95%
    03:00 +8°C° 0.1 mm 0 mps 524 mmHg 94%
    04:00 +8°C° 0 mm 0 mps 524 mmHg 93%
    05:00 +8°C° 0 mm 0 mps 524 mmHg 92%
    06:00 +9°C° 0 mm 0 mps 524 mmHg 91%
    07:00 +10°C° 0.1 mm 0 mps 526 mmHg 86%
    08:00 +13°C° 0.1 mm 1 mps 527 mmHg 82%
    09:00 +15°C° 0.1 mm 1 mps 528 mmHg 78%
    10:00 +16°C° 0.4 mm 1 mps 528 mmHg 76%
    11:00 +16°C° 0.4 mm 2 mps 528 mmHg 73%
    12:00 +17°C° 0.4 mm 2 mps 528 mmHg 71%
    13:00 +17°C° 0.8 mm 2 mps 528 mmHg 73%
    14:00 +17°C° 0.8 mm 2 mps 527 mmHg 75%
    15:00 +17°C° 0.8 mm 2 mps 527 mmHg 76%
    16:00 +16°C° 0.6 mm 2 mps 526 mmHg 81%
    17:00 +15°C° 0.6 mm 2 mps 526 mmHg 86%
    18:00 +14°C° 0.6 mm 1 mps 525 mmHg 90%
    19:00 +13°C° 0.2 mm 1 mps 525 mmHg 92%
    20:00 +12°C° 0.2 mm 1 mps 525 mmHg 94%
    21:00 +10°C° 0.2 mm 0 mps 525 mmHg 96%
    22:00 +10°C° 0 mm 0 mps 524 mmHg 95%
    23:00 +9°C° 0 mm 0 mps 524 mmHg 94%

    2 June, Tuesday

    Time Temperature Precipitation Wind Pressure Humidity
    00:00 +9°C° 0 mm 0 mps 524 mmHg 93%
    01:00 +9°C° 0 mm 1 mps 523 mmHg 92%
    02:00 +9°C° 0 mm 1 mps 523 mmHg 92%
    03:00 +9°C° 0 mm 1 mps 522 mmHg 91%
    04:00 +9°C° 0 mm 1 mps 523 mmHg 90%
    05:00 +9°C° 0 mm 1 mps 523 mmHg 89%
    06:00 +9°C° 0 mm 0 mps 523 mmHg 88%
    07:00 +12°C° 0.1 mm 1 mps 525 mmHg 84%
    08:00 +14°C° 0.1 mm 1 mps 526 mmHg 80%
    09:00 +15°C° 0.1 mm 1 mps 527 mmHg 76%
    10:00 +16°C° 0.5 mm 2 mps 527 mmHg 75%
    11:00 +17°C° 0.5 mm 2 mps 527 mmHg 74%
    12:00 +17°C° 0.5 mm 2 mps 528 mmHg 73%
    13:00 +17°C° 0.8 mm 2 mps 527 mmHg 74%
    14:00 +17°C° 0.8 mm 2 mps 526 mmHg 75%
    15:00 +17°C° 0.8 mm 2 mps 526 mmHg 77%
    16:00 +16°C° 0.4 mm 2 mps 525 mmHg 80%
    17:00 +15°C° 0.4 mm 1 mps 525 mmHg 84%
    18:00 +14°C° 0.4 mm 1 mps 524 mmHg 87%
    19:00 +13°C° 0.1 mm 1 mps 524 mmHg 90%
    20:00 +12°C° 0.1 mm 1 mps 523 mmHg 94%
    21:00 +10°C° 0.1 mm 0 mps 523 mmHg 97%
    22:00 +10°C° 0.1 mm 0 mps 523 mmHg 96%
    23:00 +10°C° 0.1 mm 0 mps 523 mmHg 95%
    Show more